[[{"header":{"parameterUnit":"m.s-1","parameterCategory":2,"la1":30.2991,"la2":30.254,"lo1":-89.0895,"lo2":-89.0444,"dy":0.0017,"dx":0.0017,"nx":28,"ny":28,"refTime":"2024-03-05T09:00:00:Z","depth":"0","parameterNumber":2,"parameterNumberName":"U-component_of_CURRENTS"},"data":[0,0,0,0,0,0,0,0,0,0,0,0,0,0,0,0,0,0,0,0,0,0,0,0,0,0,0,0,0,0,0,0,0,0,0,0,0,0,0,0,0,0,0,0,0,0,0,0,0,0,0,0,0,0,0,0,0,0,0.4539,0.454,0,0.4549,0.4549,0.4549,0.4521,0.452,0.452,0.4519,0.4506,0.4506,0.4506,0,0,0,0,0,0,0,0,0,0,0,0,0,0.4535,0.4535,0.4539,0.454,0.454,0.455,0.4549,0.4549,0.4521,0.452,0.452,0.4519,0.4506,0.4506,0.4506,0,0,0,0,0,0,0,0,0,0,0,0,0,0.4536,0.4535,0.4539,0.4531,0.4531,0.455,0.4549,0.4549,0.4521,0.452,0.4519,0.4519,0.4506,0.4506,0.4506,0.4521,0,0,0.4507,0.4507,0,0,0,0,0,0,0,0,0.4536,0.4535,0.4532,0.4532,0.4531,0.4537,0.4543,0.454,0.4521,0.452,0.4519,0.4518,0.4518,0.4517,0.4514,0.452,0.452,0.4507,0.4507,0.4507,0.4507,0,0,0,0,0,0,0,0.4536,0.4535,0.4539,0.4532,0.4532,0.4541,0.4539,0.4542,0.4518,0.452,0.4519,0.4528,0.4517,0.4514,0.4514,0.4519,0.4507,0.4507,0.4507,0.4507,0.4607,0.4609,0,0,0,0,0,0,0.4542,0.4535,0.4538,0.4539,0.4537,0.4541,0.4539,0.4532,0.4519,0.4518,0.4528,0.4526,0.4514,0.4514,0.4513,0.4602,0.4507,0.4507,0.4507,0.4604,0.4607,0.461,0,0,0,0,0,0,0.4542,0.4542,0.4538,0.4542,0.4543,0.4542,0.4534,0.4533,0.4538,0.4526,0.4524,0.4537,0.4514,0.4513,0.4549,0.4598,0.4507,0.4507,0.4601,0.4605,0.4609,0.4733,0,0,0,0,0,0,0.4541,0.4541,0.4542,0.4542,0.4543,0.4571,0.4536,0.4534,0.4547,0.4544,0.4533,0.453,0.4513,0.455,0.455,0.4597,0.4507,0.4598,0.4603,0.4607,0.4726,0.474,0.4753,0,0,0,0,0,0.4541,0.4542,0.4542,0.4543,0.4542,0.4573,0.4575,0.4569,0.4548,0.4567,0.4567,0.4531,0.458,0.4552,0.4551,0.46,0.4595,0.4601,0.4607,0.4719,0.4738,0.4753,0,0,0,0,0,0,0.4541,0.4539,0.4539,0.4539,0.4568,0.4571,0.4583,0.4579,0.4592,0.459,0.4564,0.4564,0.4617,0.4592,0.4562,0.4644,0.4582,0.4588,0.4667,0.4684,0.4698,0.4702,0.4507,0,0,0,0,0,0.4544,0.4539,0.4559,0.4562,0.4578,0.4583,0.4594,0.46,0.461,0.4613,0.4607,0.4611,0.464,0.4648,0.4662,0.4702,0.4696,0.4733,0.4747,0.4759,0.4763,0.4809,0.4828,0.4629,0.4629,0.4629,0,0,0.4548,0.4545,0.4544,0.4563,0.4576,0.4613,0.4587,0.4618,0.4654,0.4612,0.4651,0.4661,0.4664,0.472,0.474,0.4704,0.4817,0.4766,0.4776,0.4774,0.4817,0.4836,0.4854,0.4633,0.4632,0.4632,0,0,0.455,0.4553,0.4552,0.4588,0.4623,0.464,0.4655,0.4678,0.4694,0.4741,0.4733,0.4777,0.4791,0.4821,0.4833,0.493,0.4894,0.493,0.5,0.5046,0.5062,0.5076,0.5113,0.513,0.4932,0.4932,0.4932,0,0.4548,0.4549,0.4565,0.4593,0.4618,0.4656,0.4685,0.4728,0.4761,0.4782,0.4768,0.4834,0.4843,0.4925,0.4971,0.4963,0.4975,0.4936,0.5064,0.5078,0.509,0.5124,0.5141,0.4939,0.4938,0.4937,0.4937,0,0.4561,0.4575,0.4587,0.4625,0.4669,0.4703,0.4771,0.4816,0.4835,0.4868,0.4946,0.4976,0.5003,0.5036,0.5037,0.514,0.5117,0.5081,0.502,0.5118,0.5148,0.5163,0.4949,0.4946,0.4944,0.4942,0,0,0.4489,0.4571,0.457,0.4596,0.4684,0.4712,0.4803,0.4874,0.492,0.4985,0.5037,0.513,0.5137,0.5155,0.5173,0.5234,0.5355,0.5206,0.5205,0.5241,0.5458,0.5323,0.5325,0.5342,0.5345,0.5347,0.545,0,0.4477,0.4517,0.4568,0.4627,0.4657,0.474,0.4816,0.4903,0.4968,0.5042,0.5118,0.518,0.5188,0.5211,0.5282,0.534,0.5398,0.533,0.5358,0.5359,0.5225,0.5339,0.5198,0.5267,0.5464,0.5466,0.5468,0,0.4452,0.4481,0.4524,0.4613,0.4633,0.4688,0.4794,0.4874,0.5017,0.5066,0.5157,0.521,0.534,0.5312,0.5465,0.5421,0.545,0.5488,0.5492,0.5327,0.5251,0.5197,0.5286,0.5196,0.5491,0.5489,0.5487,0,0.4366,0.4441,0.4463,0.4499,0.4621,0.4655,0.4727,0.4867,0.4937,0.5087,0.515,0.5282,0.5363,0.5437,0.5532,0.5502,0.5681,0.5632,0.5537,0.5527,0.5391,0.5362,0.5388,0.5719,0.5718,0.5718,0.5718,0,0.4315,0.4332,0.4423,0.4442,0.4482,0.4597,0.4664,0.4764,0.491,0.5008,0.5151,0.5244,0.5403,0.5519,0.5566,0.5611,0.5701,0.5573,0.5553,0.543,0.5405,0.5301,0.5259,0.5722,0.5721,0.572,0.572,0,0.4221,0.4281,0.4314,0.4415,0.4444,0.4478,0.4612,0.4674,0.4834,0.4969,0.5023,0.5248,0.5398,0.553,0.5674,0.5645,0.555,0.5677,0.552,0.5477,0.523,0.5199,0.4969,0.482,0.5572,0.557,0.5568,0,0.4181,0.4189,0.4266,0.4285,0.4326,0.4393,0.4447,0.4607,0.4688,0.4959,0.5018,0.5228,0.5355,0.5524,0.5537,0.5587,0.5461,0.5437,0.5333,0.5215,0.517,0.496,0.4837,0.5228,0.5223,0.5219,0.5216,0,0.4105,0.4128,0.4154,0.4199,0.424,0.4288,0.4384,0.4432,0.4647,0.4773,0.4968,0.5098,0.5286,0.5284,0.5344,0.5352,0.5185,0.5347,0.5288,0.4952,0.4666,0.4512,0.5166,0.5181,0.5185,0.5187,0.5189,0.519,0.4041,0.4035,0.4077,0.4109,0.4152,0.4194,0.4193,0.4311,0.442,0.4573,0.4784,0.4884,0.5034,0.5095,0.5065,0.4943,0.4899,0.4836,0.4833,0.4647,0.4413,0.4967,0.4901,0.4903,0.4905,0.4906,0.4907,0,0.3961,0.3971,0.3996,0.4024,0.4027,0.4091,0.4151,0.4128,0.4186,0.4348,0.4464,0.4557,0.4576,0.4653,0.4658,0.4512,0.43,0.4405,0.4146,0.4066,0.465,0.4547,0.4324,0.4324,0.4324,0.4324,0.4324,0.4324,0.3922,0.3907,0.3919,0.3899,0.3912,0.3861,0.3861,0.3839,0.3897,0.3909,0.3926,0.4015,0.4281,0.4432,0.4349,0.4243,0.3958,0.3761,0.3723,0.4248,0.4289,0.4328,0.4224,0.3936,0.3936,0.2992,0.2985,0.298]},{"header":{"parameterUnit":"m.s-1","parameterCategory":2,"la1":30.2991,"la2":30.254,"lo1":-89.0895,"lo2":-89.0444,"dy":0.0017,"dx":0.0017,"nx":28,"ny":28,"refTime":"2024-03-05T09:00:00:Z","depth":"0","parameterNumber":3,"parameterNumberName":"V-component_of_CURRENTS"},"data":[0,0,0,0,0,0,0,0,0,0,0,0,0,0,0,0,0,0,0,0,0,0,0,0,0,0,0,0,0,0,0,0,0,0,0,0,0,0,0,0,0,0,0,0,0,0,0,0,0,0,0,0,0,0,0,0,0,0,-0.0247,-0.0248,0,-0.0294,-0.0295,-0.0295,-0.033,-0.033,-0.033,-0.033,-0.0433,-0.0435,-0.0438,0,0,0,0,0,0,0,0,0,0,0,0,0,-0.0268,-0.0267,-0.0247,-0.0248,-0.0248,-0.0294,-0.0295,-0.0296,-0.033,-0.033,-0.033,-0.033,-0.0432,-0.0435,-0.0438,0,0,0,0,0,0,0,0,0,0,0,0,0,-0.0282,-0.0266,-0.0247,-0.027,-0.0272,-0.0294,-0.0295,-0.0296,-0.033,-0.033,-0.033,-0.033,-0.0431,-0.0435,-0.0439,-0.0457,0,0,-0.045,-0.0452,0,0,0,0,0,0,0,0,-0.0281,-0.0281,-0.0266,-0.0268,-0.0271,-0.0305,-0.034,-0.0352,-0.033,-0.0309,-0.033,-0.0331,-0.0394,-0.0401,-0.041,-0.0462,-0.0466,-0.0451,-0.0453,-0.0455,-0.0456,0,0,0,0,0,0,0,-0.028,-0.028,-0.0267,-0.0266,-0.0269,-0.0305,-0.0307,-0.0342,-0.0352,-0.0311,-0.0313,-0.0316,-0.0396,-0.0407,-0.0413,-0.0467,-0.0451,-0.0454,-0.0456,-0.0458,-0.0557,-0.0557,0,0,0,0,0,0,-0.0267,-0.0278,-0.0265,-0.0268,-0.0275,-0.0304,-0.0306,-0.0295,-0.035,-0.0358,-0.0316,-0.0318,-0.04,-0.0409,-0.0417,-0.0449,-0.0455,-0.0458,-0.046,-0.0557,-0.0557,-0.0557,0,0,0,0,0,0,-0.0267,-0.0265,-0.0263,-0.0275,-0.0277,-0.0303,-0.029,-0.0296,-0.0305,-0.0353,-0.0363,-0.0319,-0.04,-0.0412,-0.0453,-0.0454,-0.046,-0.0463,-0.0556,-0.0557,-0.0557,-0.051,0,0,0,0,0,0,-0.0267,-0.0264,-0.0251,-0.0273,-0.0276,-0.0272,-0.029,-0.0296,-0.0306,-0.0308,-0.0359,-0.0369,-0.0402,-0.0447,-0.0456,-0.0459,-0.0466,-0.0556,-0.0556,-0.0557,-0.0511,-0.0509,-0.0507,0,0,0,0,0,-0.0267,-0.0246,-0.025,-0.0249,-0.0256,-0.0272,-0.0277,-0.0298,-0.0305,-0.0308,-0.0346,-0.0367,-0.0457,-0.045,-0.0462,-0.0465,-0.0555,-0.0556,-0.0557,-0.0512,-0.0509,-0.0507,0,0,0,0,0,0,-0.0253,-0.0248,-0.0253,-0.0232,-0.025,-0.0277,-0.0279,-0.0293,-0.0324,-0.0328,-0.0374,-0.0387,-0.0423,-0.0452,-0.0442,-0.0496,-0.0509,-0.0512,-0.0471,-0.0469,-0.0467,-0.0416,-0.047,0,0,0,0,0,-0.0242,-0.0221,-0.0235,-0.0221,-0.0225,-0.0251,-0.0259,-0.0274,-0.0304,-0.0316,-0.0352,-0.0394,-0.0435,-0.0456,-0.0496,-0.0525,-0.0516,-0.0534,-0.0532,-0.053,-0.0497,-0.0493,-0.0487,-0.056,-0.056,-0.056,0,0,-0.024,-0.0228,-0.0222,-0.0217,-0.0231,-0.0225,-0.0257,-0.0266,-0.0264,-0.0324,-0.0337,-0.0388,-0.0442,-0.0476,-0.0495,-0.05,-0.0507,-0.0531,-0.0529,-0.0496,-0.0493,-0.0486,-0.0479,-0.056,-0.056,-0.056,0,0,-0.0208,-0.0208,-0.0176,-0.0184,-0.0192,-0.0208,-0.0207,-0.0233,-0.0248,-0.0279,-0.0318,-0.0362,-0.0427,-0.0457,-0.0484,-0.0492,-0.0496,-0.0513,-0.046,-0.0457,-0.045,-0.0444,-0.0423,-0.0415,-0.0511,-0.051,-0.051,0,-0.02,-0.0152,-0.0175,-0.0148,-0.0139,-0.0193,-0.0162,-0.0195,-0.0233,-0.0226,-0.0278,-0.0348,-0.0414,-0.0428,-0.0446,-0.0484,-0.0472,-0.0465,-0.0451,-0.0445,-0.0439,-0.0419,-0.041,-0.0508,-0.0509,-0.0509,-0.0509,0,-0.014,-0.0109,-0.0096,-0.0069,-0.0073,-0.006,-0.0097,-0.0108,-0.0143,-0.0165,-0.0195,-0.029,-0.0317,-0.0367,-0.042,-0.041,-0.0411,-0.0448,-0.0449,-0.0428,-0.0409,-0.0401,-0.0505,-0.0506,-0.0507,-0.0507,0,0,-0.0075,-0.0052,-0.004,-0.0007,-0.002,-0.0009,-0.0014,-0.0005,0.0025,-0.0064,-0.0025,-0.0153,-0.019,-0.0222,-0.0295,-0.032,-0.0306,-0.0365,-0.0366,-0.0326,-0.0274,-0.0296,-0.029,-0.0336,-0.0334,-0.0333,-0.0275,0,-0.0006,0.0073,0.0064,0.0128,0.0165,0.0124,0.0137,0.0125,0.0094,0.0106,0.0004,-0.0006,-0.014,-0.0151,-0.0201,-0.0269,-0.0282,-0.0316,-0.0313,-0.0312,-0.0321,-0.0281,-0.025,-0.0198,-0.0268,-0.0267,-0.0266,0,0.0083,0.0129,0.0213,0.026,0.0276,0.0299,0.0347,0.0349,0.0332,0.0308,0.0269,0.0198,0.0142,0.0021,-0.007,-0.0081,-0.0163,-0.0232,-0.0232,-0.0254,-0.0319,-0.0233,-0.0181,-0.042,-0.0254,-0.0255,-0.0256,0,0.018,0.0243,0.0326,0.0337,0.0368,0.0411,0.0429,0.043,0.0469,0.0459,0.0495,0.0395,0.0383,0.025,0.0076,0.0019,-0.0005,-0.0101,-0.0189,-0.0191,-0.0163,-0.0165,-0.0322,-0.0138,-0.0138,-0.0138,-0.0138,0,0.0278,0.0344,0.0382,0.0428,0.0537,0.0519,0.0628,0.0625,0.0659,0.0756,0.062,0.0685,0.0442,0.0381,0.0184,0.0043,0.0084,-0.0146,-0.017,-0.0149,-0.015,-0.0356,-0.0494,-0.0136,-0.0137,-0.0137,-0.0137,0,0.0368,0.039,0.0489,0.0554,0.0588,0.0667,0.0763,0.0835,0.0851,0.0979,0.0993,0.0937,0.0863,0.0624,0.0443,0.0223,-0.0061,0.0003,0.005,0.0028,-0.0327,-0.0461,-0.0591,-0.0702,-0.0091,-0.0091,-0.0091,0,0.0413,0.0477,0.0592,0.0666,0.0705,0.0815,0.0895,0.093,0.1025,0.1158,0.1245,0.1219,0.1247,0.0959,0.057,0.0261,0.0008,0.0059,-0.0076,-0.0315,-0.0482,-0.0587,-0.068,-0.0015,-0.0014,-0.0014,-0.0014,0,0.0506,0.0553,0.0636,0.0788,0.0896,0.1021,0.1149,0.1258,0.1345,0.149,0.1687,0.1737,0.1462,0.1167,0.0697,0.0451,-0.0114,0.0057,-0.0196,-0.0428,-0.0542,-0.0669,-0.0084,-0.001,-0.001,-0.001,-0.0011,-0.0011,0.0575,0.0657,0.0774,0.0917,0.1049,0.1224,0.1356,0.1526,0.1746,0.1999,0.2025,0.2169,0.1689,0.1058,0.0668,-0.0051,-0.0087,-0.029,-0.0424,-0.0501,-0.0646,-0.0049,-0.0016,-0.0016,-0.0017,-0.0017,-0.0017,0,0.0659,0.0753,0.0891,0.1075,0.1235,0.1285,0.1522,0.1685,0.1993,0.2255,0.2455,0.234,0.1729,0.1063,0.0099,-0.0435,-0.0647,-0.0727,-0.0882,-0.0952,-0.0407,-0.0446,-0.0498,-0.0498,-0.0498,-0.0497,-0.0497,-0.0497,0.0712,0.0854,0.0923,0.1196,0.1333,0.1564,0.1711,0.1989,0.2225,0.2596,0.2739,0.2786,0.2288,0.0569,-0.0631,-0.0918,-0.1291,-0.1362,-0.1575,-0.1235,-0.1206,-0.1178,-0.125,-0.1469,-0.147,-0.2051,-0.2058,-0.2062]}],[{"header":{"parameterUnit":"m.s-1","parameterCategory":2,"la1":30.2991,"la2":30.254,"lo1":-89.0895,"lo2":-89.0444,"dy":0.0017,"dx":0.0017,"nx":28,"ny":28,"refTime":"2024-03-05T09:00:00:Z","depth":"2","parameterNumber":2,"parameterNumberName":"U-component_of_CURRENTS"},"data":[0,0,0,0,0,0,0,0,0,0,0,0,0,0,0,0,0,0,0,0,0,0,0,0,0,0,0,0,0,0,0,0,0,0,0,0,0,0,0,0,0,0,0,0,0,0,0,0,0,0,0,0,0,0,0,0,0,0,0.3172,0.3173,0,0.3234,0.3235,0.3235,0.3246,0.3246,0.3245,0.3245,0.3271,0.3272,0.3273,0,0,0,0,0,0,0,0,0,0,0,0,0,0.3076,0.3078,0.3172,0.3173,0.3174,0.3234,0.3235,0.3235,0.3246,0.3246,0.3245,0.3245,0.3271,0.3272,0.3273,0,0,0,0,0,0,0,0,0,0,0,0,0,0.3123,0.3078,0.3172,0.3189,0.3191,0.3234,0.3235,0.3235,0.3246,0.3246,0.3245,0.3245,0.3271,0.3272,0.3273,0.329,0,0,0.3278,0.3278,0,0,0,0,0,0,0,0,0.3121,0.3127,0.3185,0.3188,0.319,0.3234,0.3211,0.3253,0.3246,0.3222,0.3245,0.3245,0.3258,0.326,0.3269,0.3292,0.3293,0.3278,0.3279,0.3279,0.328,0,0,0,0,0,0,0,0.3117,0.3124,0.3194,0.3186,0.319,0.3198,0.3204,0.3219,0.3239,0.3224,0.3226,0.3237,0.3258,0.3268,0.327,0.3293,0.3278,0.3279,0.328,0.3281,0.3376,0.3378,0,0,0,0,0,0,0.3115,0.3121,0.3192,0.3196,0.3157,0.32,0.3207,0.3218,0.3239,0.3243,0.3238,0.3238,0.3266,0.3268,0.3271,0.3347,0.3279,0.3281,0.3282,0.3375,0.3377,0.3379,0,0,0,0,0,0,0.3113,0.3121,0.319,0.3162,0.3172,0.3203,0.3216,0.322,0.325,0.325,0.3253,0.3265,0.3265,0.3269,0.3295,0.3345,0.3281,0.3283,0.3373,0.3375,0.3378,0.3463,0,0,0,0,0,0,0.311,0.312,0.3146,0.3162,0.3173,0.3217,0.3216,0.3221,0.3257,0.3258,0.3275,0.3276,0.3265,0.3293,0.3297,0.3346,0.3284,0.3371,0.3374,0.3377,0.3458,0.3468,0.3477,0,0,0,0,0,0.3106,0.313,0.3146,0.3156,0.3202,0.3218,0.3224,0.3242,0.3259,0.3269,0.3285,0.3276,0.3316,0.3296,0.3299,0.335,0.3369,0.3373,0.3377,0.3454,0.3466,0.3476,0,0,0,0,0,0,0.3094,0.3134,0.3152,0.3186,0.3206,0.3221,0.3238,0.326,0.3283,0.3293,0.3293,0.3294,0.3339,0.333,0.3308,0.3387,0.3344,0.3349,0.3402,0.3413,0.3422,0.3422,0.3285,0,0,0,0,0,0.3108,0.3135,0.3167,0.319,0.3203,0.323,0.3249,0.3265,0.3282,0.3294,0.3314,0.3334,0.3356,0.3371,0.3383,0.3425,0.343,0.3461,0.3471,0.3479,0.3481,0.3538,0.3553,0.3391,0.3391,0.3391,0,0,0.3111,0.3134,0.3152,0.3191,0.3206,0.3231,0.3239,0.3268,0.3304,0.3293,0.3351,0.3368,0.3373,0.3419,0.3439,0.3419,0.3529,0.3484,0.349,0.3488,0.3544,0.3559,0.3574,0.3394,0.3393,0.3393,0,0,0.3115,0.3147,0.3174,0.3196,0.3234,0.3245,0.3261,0.3301,0.3334,0.3379,0.3395,0.3442,0.3465,0.3497,0.3509,0.3579,0.3575,0.3587,0.364,0.3696,0.371,0.3722,0.3754,0.3768,0.3595,0.3595,0.3595,0,0.3127,0.3151,0.3181,0.3209,0.3231,0.3255,0.3284,0.332,0.3371,0.3419,0.34,0.349,0.3503,0.3578,0.3604,0.3603,0.362,0.3598,0.3709,0.3722,0.3733,0.3762,0.3777,0.3599,0.3599,0.3598,0.3598,0,0.3139,0.3174,0.3182,0.3226,0.326,0.3276,0.3331,0.3383,0.3421,0.3468,0.3556,0.3574,0.3631,0.3651,0.3645,0.3748,0.373,0.3714,0.3682,0.3754,0.378,0.3794,0.3606,0.3604,0.3603,0.3602,0,0,0.3119,0.3183,0.3185,0.3215,0.327,0.3293,0.3367,0.3442,0.3504,0.3564,0.3647,0.3707,0.3742,0.3758,0.3779,0.3826,0.3928,0.3809,0.3809,0.3841,0.4041,0.399,0.4,0.3935,0.3938,0.394,0.4029,0,0.3114,0.3161,0.32,0.3246,0.3276,0.3337,0.34,0.3489,0.355,0.3638,0.3707,0.3777,0.3776,0.3812,0.3869,0.3916,0.3967,0.3904,0.3964,0.3966,0.3913,0.4015,0.3698,0.3747,0.4043,0.4045,0.4047,0,0.3103,0.3141,0.3188,0.3271,0.3291,0.3329,0.3437,0.3504,0.3642,0.3701,0.3799,0.3845,0.396,0.392,0.4051,0.4012,0.4038,0.4055,0.4059,0.3988,0.3941,0.3722,0.3761,0.4069,0.4067,0.4066,0.4064,0,0.3053,0.3126,0.316,0.3186,0.3286,0.3339,0.34,0.3533,0.3608,0.3756,0.3822,0.3941,0.4016,0.4073,0.414,0.4105,0.4253,0.4206,0.4179,0.4175,0.3903,0.3871,0.4285,0.4285,0.4285,0.4285,0.4285,0,0.3015,0.3046,0.3142,0.316,0.3224,0.332,0.3401,0.3497,0.3632,0.3726,0.3857,0.3942,0.406,0.4158,0.4181,0.4244,0.43,0.4211,0.4209,0.3924,0.3894,0.4162,0.4146,0.4288,0.4287,0.4287,0.4286,0,0.295,0.3006,0.3053,0.3158,0.3199,0.3251,0.3387,0.3445,0.3601,0.3725,0.3782,0.3982,0.4122,0.4217,0.4325,0.4306,0.4352,0.435,0.4005,0.3962,0.4217,0.4205,0.4324,0.4323,0.4323,0.4322,0.4322,0,0.2913,0.293,0.3032,0.306,0.3105,0.3197,0.3253,0.3412,0.348,0.3735,0.3785,0.3992,0.4103,0.4268,0.4277,0.4322,0.4379,0.4036,0.3912,0.4242,0.4229,0.4217,0.4206,0.358,0.3573,0.3568,0.3564,0,0.2846,0.2883,0.292,0.2976,0.3031,0.3094,0.3195,0.3244,0.3437,0.3556,0.373,0.3848,0.4048,0.3977,0.4068,0.4038,0.4003,0.3931,0.4381,0.3632,0.3551,0.3535,0.3546,0.3517,0.3521,0.3525,0.3527,0.3529,0.2784,0.2791,0.2837,0.2879,0.2935,0.2977,0.2974,0.3084,0.318,0.3322,0.3542,0.3623,0.3715,0.3706,0.3613,0.355,0.3821,0.3632,0.3643,0.3661,0.3572,0.3497,0.3433,0.3437,0.3441,0.3444,0.3447,0,0.2695,0.272,0.2742,0.2772,0.2756,0.285,0.291,0.2875,0.2912,0.3093,0.3216,0.3065,0.3062,0.3141,0.2987,0.3009,0.2921,0.287,0.2717,0.277,0.2816,0.2676,0.2303,0.2299,0.2295,0.2291,0,0,0.2651,0.2632,0.264,0.2582,0.2603,0.255,0.2549,0.2534,0.2598,0.262,0.2658,0.294,0.3078,0.2651,0.2611,0.242,0.2555,0.2323,0.3256,0.3131,0.317,0.3294,0.3147,0,0,0,0,0]},{"header":{"parameterUnit":"m.s-1","parameterCategory":2,"la1":30.2991,"la2":30.254,"lo1":-89.0895,"lo2":-89.0444,"dy":0.0017,"dx":0.0017,"nx":28,"ny":28,"refTime":"2024-03-05T09:00:00:Z","depth":"2","parameterNumber":3,"parameterNumberName":"V-component_of_CURRENTS"},"data":[0,0,0,0,0,0,0,0,0,0,0,0,0,0,0,0,0,0,0,0,0,0,0,0,0,0,0,0,0,0,0,0,0,0,0,0,0,0,0,0,0,0,0,0,0,0,0,0,0,0,0,0,0,0,0,0,0,0,0.0162,0.0162,0,0.0082,0.0081,0.008,0.0023,0.0022,0.0022,0.0022,-0.0077,-0.0079,-0.0081,0,0,0,0,0,0,0,0,0,0,0,0,0,0.02,0.02,0.0162,0.0162,0.0161,0.0083,0.0081,0.008,0.0023,0.0022,0.0022,0.0022,-0.0076,-0.0079,-0.0081,0,0,0,0,0,0,0,0,0,0,0,0,0,0.0158,0.02,0.0163,0.0123,0.0119,0.0083,0.0081,0.008,0.0023,0.0022,0.0022,0.0021,-0.0075,-0.0078,-0.0082,-0.0091,0,0,-0.0092,-0.0094,0,0,0,0,0,0,0,0,0.016,0.0156,0.013,0.0126,0.0121,0.0063,0.0059,0.0022,0.0023,0.0058,0.0022,0.0021,-0.0031,-0.0038,-0.0053,-0.0096,-0.01,-0.0092,-0.0094,-0.0096,-0.0097,0,0,0,0,0,0,0,0.0164,0.0159,0.013,0.0129,0.0124,0.0088,0.0081,0.0051,0.0017,0.0055,0.0051,0.0044,-0.0033,-0.0049,-0.0055,-0.0102,-0.0092,-0.0095,-0.0097,-0.0099,-0.0153,-0.0152,0,0,0,0,0,0,0.018,0.0162,0.0132,0.0127,0.0141,0.0088,0.0081,0.0081,0.0017,0.0008,0.0045,0.0042,-0.0043,-0.0051,-0.0059,-0.0058,-0.0096,-0.0099,-0.0101,-0.0153,-0.0153,-0.0152,0,0,0,0,0,0,0.0181,0.0178,0.0135,0.0143,0.0135,0.0088,0.0089,0.008,0.0064,0.001,-0.0001,0.0038,-0.0044,-0.0054,-0.0079,-0.0063,-0.0101,-0.0104,-0.0154,-0.0153,-0.0152,-0.0066,0,0,0,0,0,0,0.0183,0.0179,0.0181,0.0145,0.0136,0.0128,0.0089,0.0079,0.0061,0.0056,0.0001,-0.0009,-0.0045,-0.0073,-0.0082,-0.0068,-0.0106,-0.0155,-0.0154,-0.0153,-0.007,-0.0062,-0.0056,0,0,0,0,0,0.0184,0.0199,0.0182,0.0178,0.0142,0.0129,0.0121,0.0084,0.0062,0.0065,0.0025,-0.0007,-0.0072,-0.0075,-0.0086,-0.0073,-0.0155,-0.0154,-0.0153,-0.0073,-0.0064,-0.0056,0,0,0,0,0,0,0.0216,0.0193,0.0174,0.018,0.016,0.0119,0.0118,0.009,0.006,0.0053,-0.0001,-0.0013,-0.003,-0.0062,-0.0064,-0.0085,-0.0119,-0.0119,-0.0054,-0.0046,-0.004,-0.0012,-0.0109,0,0,0,0,0,0.0225,0.0229,0.02,0.0204,0.0199,0.0158,0.0145,0.0122,0.0091,0.0076,0.0037,-0.0003,-0.0032,-0.0047,-0.008,-0.009,-0.0126,-0.0089,-0.0082,-0.0076,-0.0061,-0.0108,-0.0104,-0.0148,-0.0148,-0.0148,0,0,0.0236,0.0226,0.0225,0.0211,0.0192,0.0199,0.015,0.014,0.0142,0.0071,0.0062,0.0018,-0.003,-0.0042,-0.0052,-0.0067,-0.0082,-0.0074,-0.0068,-0.0056,-0.0106,-0.0102,-0.0098,-0.0147,-0.0147,-0.0147,0,0,0.027,0.0256,0.0272,0.0266,0.0246,0.0227,0.023,0.0194,0.0176,0.016,0.011,0.0079,0.0034,0.0005,-0.0016,0.0009,-0.0046,-0.0004,0.0055,0.0009,0.0012,0.0015,-0.0022,-0.0024,0.0002,0.0003,0.0003,0,0.0281,0.0302,0.0275,0.0293,0.0296,0.0248,0.0272,0.025,0.0209,0.0202,0.0171,0.0104,0.0059,0.0047,0.0055,0.0026,-0.0008,0.0029,0.0019,0.002,0.0021,-0.0018,-0.002,0.0007,0.0006,0.0006,0.0005,0,0.033,0.0345,0.0359,0.0369,0.037,0.0382,0.0357,0.0349,0.0318,0.0291,0.0266,0.0199,0.0163,0.014,0.0105,0.0096,0.0067,0.0031,0.0001,0.0031,-0.0012,-0.0016,0.0013,0.0011,0.001,0.0009,0,0,0.0364,0.0387,0.0395,0.0418,0.0413,0.0426,0.0434,0.0433,0.0449,0.0389,0.0398,0.0332,0.0289,0.0262,0.0206,0.0165,0.0138,0.0111,0.0107,0.0081,0.0042,0.002,0.0013,0.0096,0.0096,0.0096,0.001,0,0.0411,0.0469,0.0465,0.0524,0.0554,0.0528,0.0548,0.0538,0.0515,0.0511,0.0432,0.0415,0.0337,0.0322,0.027,0.0173,0.013,0.0165,0.0011,0.0007,-0.0011,0.0008,0.0044,-0.003,0.0005,0.0004,0.0004,0,0.0466,0.05,0.0566,0.0614,0.0626,0.0655,0.0689,0.0701,0.0678,0.0655,0.0613,0.0548,0.0485,0.0411,0.0262,0.0287,0.018,0.0095,0.0089,0.0039,-0.0022,-0.0056,-0.004,-0.0004,-0.0004,-0.0003,-0.0003,0,0.0519,0.0575,0.0637,0.0653,0.0694,0.0723,0.0747,0.0748,0.078,0.0751,0.0763,0.066,0.0624,0.0472,0.0293,0.0277,0.0125,0.0074,-0.0047,-0.005,-0.0063,-0.0067,-0.0029,-0.0029,-0.0029,-0.0029,-0.0028,0,0.0576,0.0626,0.0672,0.0709,0.0795,0.0797,0.0881,0.0881,0.0903,0.0965,0.0849,0.0862,0.0638,0.0521,0.0337,0.0141,0.0153,-0.0026,-0.0071,-0.0032,-0.0032,-0.0047,-0.0048,-0.0032,-0.0031,-0.0031,-0.003,0,0.0623,0.0649,0.0728,0.0794,0.0824,0.089,0.0981,0.1039,0.1042,0.1118,0.1115,0.1018,0.0866,0.0632,0.0391,0.0217,0.0015,-0.006,0.0005,-0.003,-0.0141,-0.0137,-0.0203,-0.0204,-0.0205,-0.0206,-0.0207,0,0.0649,0.0696,0.08,0.0861,0.0898,0.0993,0.1064,0.1105,0.118,0.1224,0.1272,0.1151,0.1089,0.0719,0.0386,0.0064,0.0018,-0.0116,-0.0148,-0.0121,-0.0158,-0.0152,-0.0146,-0.0135,-0.0135,-0.0135,-0.0135,0,0.0704,0.0742,0.0813,0.0941,0.1035,0.1149,0.1259,0.134,0.1407,0.1469,0.1528,0.1481,0.1141,0.0813,0.0365,0.0152,-0.0067,-0.013,-0.0119,-0.0092,-0.0063,-0.0098,-0.0093,-0.0137,-0.0137,-0.0136,-0.0136,-0.0136,0.0748,0.081,0.0909,0.1033,0.1148,0.1299,0.1403,0.1523,0.1662,0.1767,0.1718,0.1654,0.1282,0.0709,0.0318,-0.0087,-0.0065,-0.0208,-0.0205,-0.0202,-0.0175,-0.0149,-0.0233,-0.0234,-0.0234,-0.0234,-0.0235,0,0.0804,0.0879,0.0993,0.1149,0.1282,0.134,0.1531,0.1636,0.1809,0.1889,0.1928,0.1581,0.1205,0.0771,0.0167,-0.0189,-0.0209,-0.0296,-0.0249,-0.0244,-0.024,-0.0214,-0.0284,-0.0285,-0.0287,-0.0288,0,0,0.0839,0.0952,0.1014,0.1237,0.1353,0.1544,0.1662,0.1811,0.1911,0.1988,0.1954,0.1864,0.1338,0.0892,0.0404,0.0051,-0.0009,-0.0007,0.0076,0.0196,0.0204,-0.0143,-0.009,0,0,0,0,0]}],[{"header":{"parameterUnit":"m.s-1","parameterCategory":2,"la1":30.2991,"la2":30.254,"lo1":-89.0895,"lo2":-89.0444,"dy":0.0017,"dx":0.0017,"nx":28,"ny":28,"refTime":"2024-03-05T09:00:00:Z","depth":"4","parameterNumber":2,"parameterNumberName":"U-component_of_CURRENTS"},"data":[0,0,0,0,0,0,0,0,0,0,0,0,0,0,0,0,0,0,0,0,0,0,0,0,0,0,0,0,0,0,0,0,0,0,0,0,0,0,0,0,0,0,0,0,0,0,0,0,0,0,0,0,0,0,0,0,0,0,0.1947,0.1948,0,0.2027,0.2028,0.2028,0.2097,0.2098,0.2099,0.21,0.2198,0.22,0.2201,0,0,0,0,0,0,0,0,0,0,0,0,0,0.1821,0.1823,0.1947,0.1948,0.1949,0.2027,0.2028,0.2028,0.2097,0.2098,0.21,0.2101,0.2198,0.2199,0.2202,0,0,0,0,0,0,0,0,0,0,0,0,0,0.1884,0.1824,0.1947,0.1995,0.2,0.2027,0.2028,0.2029,0.2097,0.2098,0.21,0.2101,0.2197,0.2199,0.2202,0.2188,0,0,0.221,0.2211,0,0,0,0,0,0,0,0,0.188,0.1888,0.1986,0.1991,0.1997,0.2056,0.2019,0.2084,0.2097,0.2058,0.21,0.2102,0.2152,0.2159,0.2167,0.2193,0.2197,0.221,0.2211,0.2212,0.2213,0,0,0,0,0,0,0,0.1876,0.1885,0.1976,0.1988,0.1994,0.2001,0.2012,0.2031,0.2094,0.2061,0.2067,0.2079,0.2155,0.2164,0.217,0.2198,0.221,0.2212,0.2214,0.2215,0.2348,0.235,0,0,0,0,0,0,0.1871,0.1881,0.1974,0.1979,0.1944,0.2002,0.2014,0.2034,0.2094,0.2105,0.2078,0.2082,0.2159,0.2167,0.2174,0.2276,0.2212,0.2215,0.2216,0.2346,0.2349,0.2351,0,0,0,0,0,0,0.1868,0.1879,0.1971,0.1933,0.1946,0.2003,0.2024,0.2034,0.2088,0.2107,0.2118,0.2126,0.2161,0.217,0.2233,0.2276,0.2216,0.2218,0.2344,0.2347,0.235,0.2408,0,0,0,0,0,0,0.1864,0.1877,0.1909,0.1933,0.1948,0.201,0.2024,0.2035,0.2091,0.2099,0.2151,0.2159,0.2163,0.2229,0.2236,0.2279,0.222,0.2341,0.2345,0.2349,0.2403,0.2412,0.242,0,0,0,0,0,0.1859,0.1888,0.191,0.1923,0.1983,0.2011,0.202,0.2063,0.2093,0.2117,0.2162,0.216,0.2258,0.2233,0.224,0.2285,0.2339,0.2344,0.2348,0.24,0.2411,0.242,0,0,0,0,0,0,0.185,0.1898,0.1923,0.1968,0.2,0.2024,0.2059,0.2086,0.214,0.2163,0.2182,0.2193,0.2265,0.2267,0.2239,0.2336,0.23,0.2306,0.2337,0.2347,0.2355,0.2369,0.2222,0,0,0,0,0,0.1862,0.1902,0.1937,0.1977,0.1998,0.2037,0.2064,0.2092,0.2132,0.2159,0.2198,0.2241,0.228,0.231,0.2338,0.2388,0.2402,0.2423,0.2432,0.2439,0.2457,0.2511,0.2526,0.2366,0.2366,0.2366,0,0,0.1866,0.1903,0.1925,0.1979,0.2012,0.2046,0.2058,0.2108,0.2152,0.2159,0.2247,0.2274,0.2301,0.236,0.2393,0.2374,0.2493,0.2445,0.2451,0.2465,0.2518,0.2533,0.2547,0.2369,0.2368,0.2368,0,0,0.1882,0.1933,0.1967,0.1998,0.2056,0.2079,0.2103,0.2153,0.2199,0.2266,0.2291,0.2349,0.2407,0.2437,0.2456,0.253,0.2535,0.2544,0.2601,0.2654,0.2668,0.268,0.2716,0.2731,0.2549,0.2549,0.2549,0,0.1889,0.1941,0.198,0.2018,0.2053,0.2099,0.2138,0.2183,0.2252,0.2298,0.2307,0.2421,0.2443,0.2519,0.2551,0.255,0.2578,0.2557,0.2665,0.2677,0.2689,0.2723,0.2739,0.2553,0.2552,0.2552,0.2552,0,0.1917,0.1973,0.1996,0.2065,0.2104,0.2146,0.2203,0.2265,0.2326,0.237,0.2474,0.2508,0.2579,0.2594,0.2599,0.2696,0.2689,0.2667,0.2636,0.2708,0.274,0.2755,0.2558,0.2556,0.2555,0.2554,0,0,0.1893,0.1997,0.201,0.2052,0.2136,0.2164,0.2252,0.2335,0.2407,0.2481,0.2572,0.2646,0.2682,0.2708,0.2726,0.2773,0.2874,0.2767,0.2768,0.2798,0.2996,0.2814,0.2813,0.2877,0.2881,0.2883,0.2984,0,0.1908,0.1984,0.2038,0.2114,0.2154,0.2229,0.2305,0.2389,0.247,0.2568,0.2634,0.2724,0.2721,0.2771,0.2822,0.2867,0.2919,0.2849,0.2926,0.2929,0.2754,0.2826,0.2893,0.2996,0.2999,0.3002,0.3003,0,0.1913,0.1969,0.2047,0.2152,0.2179,0.2239,0.2369,0.2442,0.258,0.2651,0.2752,0.2806,0.2916,0.2888,0.3014,0.2976,0.3005,0.3022,0.3025,0.2847,0.2775,0.291,0.3031,0.3029,0.3027,0.3025,0.3023,0,0.1865,0.1972,0.2041,0.2074,0.2197,0.2266,0.2343,0.2478,0.2555,0.2717,0.2793,0.2913,0.2998,0.3057,0.3116,0.3085,0.323,0.3179,0.304,0.3027,0.3134,0.312,0.3266,0.3266,0.3266,0.3265,0.3265,0,0.1842,0.1898,0.2033,0.2067,0.2158,0.2256,0.237,0.2469,0.2616,0.2705,0.2841,0.2924,0.3052,0.3142,0.3163,0.3155,0.3277,0.3068,0.3047,0.3155,0.3142,0.3144,0.3129,0.3269,0.3268,0.3267,0.3267,0,0.177,0.1862,0.1943,0.2089,0.2139,0.2206,0.2369,0.2439,0.2605,0.2727,0.2789,0.2976,0.3092,0.3184,0.329,0.3203,0.3214,0.3181,0.3312,0.3294,0.2961,0.2948,0.3018,0.3012,0.3008,0.3004,0.3001,0,0.1734,0.1775,0.1935,0.1982,0.2057,0.2172,0.2243,0.2417,0.2486,0.2729,0.2767,0.2959,0.3059,0.3067,0.3175,0.3202,0.3165,0.3142,0.3026,0.2966,0.294,0.2934,0.2927,0.2993,0.2992,0.2991,0.299,0,0.1658,0.1739,0.1804,0.1906,0.1992,0.2064,0.2183,0.2218,0.2414,0.259,0.2686,0.2757,0.2885,0.2956,0.3011,0.3019,0.3133,0.3093,0.3101,0.2991,0.2937,0.2914,0.2913,0.2974,0.2976,0.2978,0.2979,0,0.1601,0.1628,0.1728,0.1797,0.1892,0.1921,0.2003,0.2086,0.218,0.2438,0.2471,0.2677,0.2859,0.2865,0.2915,0.2913,0.2853,0.2736,0.2761,0.278,0.2653,0.2546,0.246,0,0,0,0,0,0.1531,0.1545,0.1603,0.1666,0.175,0.1807,0.1939,0.2025,0.2217,0.222,0.2335,0.2441,0.2531,0.2643,0.2592,0.2803,0.2859,0.2729,0.2734,0.2885,0.2904,0.2775,0,0,0,0,0,0,0.148,0.1537,0.1557,0.1534,0.1551,0.1625,0.1703,0.1836,0.1846,0.2058,0.2124,0.2289,0.2416,0.2537,0.2546,0.2576,0.2526,0.2859,0.2852,0.2875,0.2891,0.2906,0.2781,0,0,0,0,0]},{"header":{"parameterUnit":"m.s-1","parameterCategory":2,"la1":30.2991,"la2":30.254,"lo1":-89.0895,"lo2":-89.0444,"dy":0.0017,"dx":0.0017,"nx":28,"ny":28,"refTime":"2024-03-05T09:00:00:Z","depth":"4","parameterNumber":3,"parameterNumberName":"V-component_of_CURRENTS"},"data":[0,0,0,0,0,0,0,0,0,0,0,0,0,0,0,0,0,0,0,0,0,0,0,0,0,0,0,0,0,0,0,0,0,0,0,0,0,0,0,0,0,0,0,0,0,0,0,0,0,0,0,0,0,0,0,0,0,0,0.019,0.019,0,0.0139,0.0138,0.0137,0.0098,0.0098,0.0097,0.0097,0.003,0.0029,0.0027,0,0,0,0,0,0,0,0,0,0,0,0,0,0.0214,0.0214,0.019,0.019,0.0189,0.0139,0.0138,0.0137,0.0098,0.0098,0.0097,0.0097,0.0031,0.0029,0.0027,0,0,0,0,0,0,0,0,0,0,0,0,0,0.0187,0.0214,0.019,0.0164,0.0161,0.0139,0.0138,0.0137,0.0098,0.0098,0.0097,0.0097,0.0031,0.0029,0.0027,0.0022,0,0,0.002,0.0019,0,0,0,0,0,0,0,0,0.0188,0.0186,0.0169,0.0166,0.0163,0.0125,0.0122,0.0098,0.0098,0.0121,0.0097,0.0097,0.0061,0.0057,0.0047,0.0019,0.0016,0.002,0.0019,0.0018,0.0017,0,0,0,0,0,0,0,0.019,0.0187,0.0169,0.0168,0.0164,0.0141,0.0137,0.0117,0.0094,0.0119,0.0117,0.0112,0.006,0.0049,0.0045,0.0015,0.002,0.0018,0.0017,0.0016,-0.0015,-0.0014,0,0,0,0,0,0,0.0201,0.019,0.0171,0.0168,0.0175,0.0141,0.0136,0.0137,0.0094,0.0087,0.0113,0.0111,0.0053,0.0048,0.0043,0.0052,0.0018,0.0016,0.0014,-0.0015,-0.0015,-0.0014,0,0,0,0,0,0,0.0202,0.02,0.0173,0.0178,0.0173,0.0142,0.0142,0.0136,0.0129,0.0089,0.0082,0.0112,0.0053,0.0046,0.0032,0.0048,0.0015,0.0012,-0.0016,-0.0015,-0.0014,0.0059,0,0,0,0,0,0,0.0203,0.0201,0.0207,0.0179,0.0173,0.017,0.0142,0.0136,0.0127,0.0124,0.0086,0.0079,0.0052,0.0036,0.003,0.0045,0.0011,-0.0017,-0.0015,-0.0014,0.0056,0.0062,0.0068,0,0,0,0,0,0.0204,0.0216,0.0207,0.0205,0.0182,0.0171,0.0166,0.0141,0.0128,0.0131,0.0105,0.0081,0.0038,0.0034,0.0027,0.0042,-0.0017,-0.0016,-0.0015,0.0053,0.0061,0.0068,0,0,0,0,0,0,0.0229,0.0213,0.0202,0.0209,0.0195,0.0165,0.0166,0.0148,0.0129,0.0126,0.0087,0.0079,0.0071,0.0047,0.0044,0.0035,0.0007,0.0007,0.0061,0.0068,0.0073,0.0087,0.0009,0,0,0,0,0,0.0238,0.0244,0.0223,0.0229,0.0225,0.0197,0.0189,0.0174,0.0152,0.0143,0.0117,0.009,0.007,0.0062,0.0038,0.0037,-0.0003,0.0041,0.0047,0.0052,0.0058,0.0009,0.0011,-0.001,-0.001,-0.001,0,0,0.0248,0.0241,0.0244,0.0234,0.0221,0.0227,0.0192,0.0187,0.0191,0.014,0.0139,0.0108,0.0073,0.0069,0.0064,0.0052,0.0037,0.0053,0.0058,0.0062,0.001,0.0012,0.0014,-0.0009,-0.0009,-0.0009,0,0,0.0274,0.0268,0.0281,0.0276,0.0264,0.0251,0.0254,0.023,0.022,0.0214,0.0178,0.0158,0.013,0.0108,0.0093,0.0117,0.0067,0.0112,0.0158,0.0111,0.0112,0.0112,0.0066,0.0062,0.0119,0.012,0.012,0,0.0286,0.03,0.0283,0.0295,0.03,0.0268,0.0287,0.0273,0.0248,0.0245,0.0225,0.0179,0.0149,0.0141,0.015,0.0131,0.0095,0.0136,0.0118,0.0118,0.0117,0.0069,0.0064,0.0123,0.0123,0.0122,0.0122,0,0.0317,0.0332,0.0341,0.035,0.0355,0.0364,0.035,0.0349,0.0333,0.0315,0.0299,0.0252,0.0227,0.0215,0.0191,0.018,0.0153,0.0128,0.0102,0.0124,0.0072,0.0065,0.0129,0.0127,0.0126,0.0125,0,0,0.0338,0.0359,0.0365,0.0386,0.0387,0.0398,0.0409,0.0412,0.0425,0.0388,0.0393,0.0352,0.032,0.0301,0.0263,0.0227,0.0191,0.0186,0.0182,0.0144,0.0085,0.0075,0.0066,0.0162,0.0162,0.0161,0.0051,0,0.0369,0.0411,0.0413,0.0462,0.0484,0.0474,0.0492,0.0489,0.0477,0.0474,0.0417,0.0406,0.0355,0.0348,0.0301,0.0219,0.0176,0.0223,0.0067,0.0062,0.0053,0.0058,0.0159,0.0046,0.0044,0.0043,0.0042,0,0.0399,0.0427,0.0481,0.0526,0.0537,0.0563,0.0596,0.061,0.0592,0.0577,0.0546,0.0499,0.0446,0.0397,0.0259,0.0291,0.0199,0.0127,0.0121,0.0081,0.0039,0.0017,0.0028,0.0029,0.003,0.0031,0.0032,0,0.0427,0.0478,0.0529,0.0544,0.0585,0.0614,0.0639,0.0644,0.067,0.0649,0.0653,0.057,0.0537,0.0408,0.0261,0.0259,0.0099,0.0072,-0.0029,-0.0031,-0.0022,-0.0022,-0.0029,-0.0029,-0.0029,-0.0029,-0.0028,0,0.0457,0.05,0.0553,0.0582,0.0654,0.0666,0.0736,0.074,0.0757,0.0797,0.0715,0.0709,0.0539,0.0427,0.028,0.0106,0.0106,-0.002,-0.0059,0.0012,0.0017,-0.0027,-0.0026,-0.0033,-0.0032,-0.0031,-0.003,0,0.0476,0.0507,0.0575,0.064,0.0671,0.0726,0.0812,0.0855,0.0859,0.0904,0.0903,0.0812,0.0665,0.0479,0.027,0.0143,-0.003,-0.0093,0.0,-0.0031,-0.0135,-0.0128,-0.0216,-0.0217,-0.0218,-0.0219,-0.022,0,0.0487,0.0524,0.0625,0.0678,0.0715,0.0801,0.086,0.0903,0.0954,0.0967,0.0987,0.0871,0.0783,0.0478,0.0273,-0.0018,-0.0059,-0.0153,-0.0148,-0.0125,-0.0154,-0.0145,-0.0137,-0.0222,-0.0222,-0.0222,-0.0223,0,0.051,0.0551,0.061,0.072,0.0802,0.09,0.0989,0.103,0.1081,0.1087,0.1057,0.0905,0.0736,0.0491,0.0265,0.0056,-0.0095,-0.0165,-0.0165,-0.016,-0.0133,-0.0158,-0.0149,-0.0226,-0.0226,-0.0225,-0.0225,0,0.0532,0.0577,0.0662,0.0759,0.0866,0.0968,0.1013,0.1073,0.1123,0.1133,0.1122,0.0938,0.0841,0.0529,0.0321,0.0113,0.0055,-0.0015,-0.0023,-0.0022,0.0063,0.0128,0.0085,0,0,0,0,0,0.0548,0.0603,0.0693,0.0805,0.0911,0.0983,0.1088,0.1123,0.117,0.1162,0.1149,0.0993,0.0693,0.0561,0.0352,0.0278,0.0003,0.0023,-0.0086,-0.0247,-0.0242,-0.0177,0,0,0,0,0,0,0.0561,0.0642,0.069,0.0827,0.091,0.1038,0.111,0.1143,0.1138,0.1148,0.0991,0.0934,0.0637,0.0815,0.0347,0.0284,0.0184,-0.0112,-0.0117,-0.0249,-0.0245,-0.0242,-0.0173,0,0,0,0,0]}]]